Year,Month,Day,Hour,Minute,Value (Times are PST for temperature in C)
2011,04,14,00,00,4.40
2011,04,14,00,01,4.40
2011,04,14,00,02,4.40
2011,04,14,00,03,4.40
2011,04,14,00,04,4.40
2011,04,14,00,05,4.40
2011,04,14,00,06,4.40
2011,04,14,00,07,4.40
2011,04,14,00,08,4.40
2011,04,14,00,09,4.50
2011,04,14,00,10,4.50
2011,04,14,00,11,4.50
2011,04,14,00,12,4.60
2011,04,14,00,13,4.60
2011,04,14,00,14,4.60
2011,04,14,00,15,4.60
2011,04,14,00,16,4.60
2011,04,14,00,17,4.60
2011,04,14,00,18,4.60
2011,04,14,00,19,4.60
2011,04,14,00,20,4.60
2011,04,14,00,21,4.60
2011,04,14,00,22,4.60
2011,04,14,00,23,4.60
2011,04,14,00,24,4.60
2011,04,14,00,25,4.60
2011,04,14,00,26,4.60
2011,04,14,00,27,4.60
2011,04,14,00,28,4.60
2011,04,14,00,29,4.60
2011,04,14,00,30,4.50
2011,04,14,00,31,4.50
2011,04,14,00,32,4.50
2011,04,14,00,33,4.50
2011,04,14,00,34,4.50
2011,04,14,00,35,4.50
2011,04,14,00,36,4.50
2011,04,14,00,37,4.50
2011,04,14,00,38,4.40
2011,04,14,00,39,4.50
2011,04,14,00,40,4.50
2011,04,14,00,41,4.50
2011,04,14,00,42,4.50
2011,04,14,00,43,4.50
2011,04,14,00,44,4.50
2011,04,14,00,45,4.50
2011,04,14,00,46,4.50
2011,04,14,00,47,4.40
2011,04,14,00,48,4.40
2011,04,14,00,49,4.40
2011,04,14,00,50,4.40
2011,04,14,00,51,4.40
2011,04,14,00,52,4.40
2011,04,14,00,53,4.50
2011,04,14,00,54,4.50
2011,04,14,00,55,4.50
2011,04,14,00,56,4.50
2011,04,14,00,57,4.50
2011,04,14,00,58,4.50
2011,04,14,00,59,4.40
2011,04,14,01,00,4.40
2011,04,14,01,01,4.40
2011,04,14,01,02,4.40
2011,04,14,01,03,4.40
2011,04,14,01,04,4.40
2011,04,14,01,05,4.40
2011,04,14,01,06,4.40
2011,04,14,01,07,4.40
2011,04,14,01,08,4.40
2011,04,14,01,09,4.40
2011,04,14,01,10,4.40
2011,04,14,01,11,4.30
2011,04,14,01,12,4.30
2011,04,14,01,13,4.30
2011,04,14,01,14,4.40
2011,04,14,01,15,4.40
2011,04,14,01,16,4.50
2011,04,14,01,17,4.60
2011,04,14,01,18,4.60
2011,04,14,01,19,4.70
2011,04,14,01,20,4.70
2011,04,14,01,21,4.80
2011,04,14,01,22,4.80
2011,04,14,01,23,4.80
2011,04,14,01,24,4.80
2011,04,14,01,25,4.80
2011,04,14,01,26,4.80
2011,04,14,01,27,4.80
2011,04,14,01,28,4.80
2011,04,14,01,29,4.80
2011,04,14,01,30,4.80
2011,04,14,01,31,4.80
2011,04,14,01,32,4.80
2011,04,14,01,33,4.80
2011,04,14,01,34,4.80
2011,04,14,01,35,4.80
2011,04,14,01,36,4.80
2011,04,14,01,37,4.80
2011,04,14,01,38,4.80
2011,04,14,01,39,4.80
2011,04,14,01,40,4.80
2011,04,14,01,41,4.80
2011,04,14,01,42,4.80
2011,04,14,01,43,4.80
2011,04,14,01,44,4.80
2011,04,14,01,45,4.80
2011,04,14,01,46,4.80
2011,04,14,01,47,4.80
2011,04,14,01,48,4.80
2011,04,14,01,49,4.70
2011,04,14,01,50,4.70
2011,04,14,01,51,4.70
2011,04,14,01,52,4.70
2011,04,14,01,53,4.70
2011,04,14,01,54,4.60
2011,04,14,01,55,4.60
2011,04,14,01,56,4.50
2011,04,14,01,57,4.50
2011,04,14,01,58,4.40
2011,04,14,01,59,4.30
2011,04,14,02,00,4.30
2011,04,14,02,01,4.20
2011,04,14,02,02,4.10
2011,04,14,02,03,4.10
2011,04,14,02,04,4.00
2011,04,14,02,05,4.00
2011,04,14,02,06,3.90
2011,04,14,02,07,3.90
2011,04,14,02,08,3.80
2011,04,14,02,09,3.80
2011,04,14,02,10,3.70
2011,04,14,02,11,3.70
2011,04,14,02,12,3.60
2011,04,14,02,13,3.60
2011,04,14,02,14,3.50
2011,04,14,02,15,3.50
2011,04,14,02,16,3.40
2011,04,14,02,17,3.40
2011,04,14,02,18,3.40
2011,04,14,02,19,3.30
2011,04,14,02,20,3.30
2011,04,14,02,21,3.30
2011,04,14,02,22,3.20
2011,04,14,02,23,3.20
2011,04,14,02,24,3.20
2011,04,14,02,25,3.10
2011,04,14,02,26,3.10
2011,04,14,02,27,3.00
2011,04,14,02,28,3.00
2011,04,14,02,29,2.90
2011,04,14,02,30,2.90
2011,04,14,02,31,2.90
2011,04,14,02,32,2.80
2011,04,14,02,33,2.80
2011,04,14,02,34,2.80
2011,04,14,02,35,2.80
2011,04,14,02,36,2.70
2011,04,14,02,37,2.70
2011,04,14,02,38,2.70
2011,04,14,02,39,2.70
2011,04,14,02,40,2.70
2011,04,14,02,41,2.70
2011,04,14,02,42,2.70
2011,04,14,02,43,2.70
2011,04,14,02,44,2.60
2011,04,14,02,45,2.60
2011,04,14,02,46,2.60
2011,04,14,02,47,2.60
2011,04,14,02,48,2.60
2011,04,14,02,49,2.60
2011,04,14,02,50,2.60
2011,04,14,02,51,2.50
2011,04,14,02,52,2.50
2011,04,14,02,53,2.50
2011,04,14,02,54,2.50
2011,04,14,02,55,2.40
2011,04,14,02,56,2.40
2011,04,14,02,57,2.40
2011,04,14,02,58,2.40
2011,04,14,02,59,2.40
2011,04,14,03,00,2.40
2011,04,14,03,01,2.40
2011,04,14,03,02,2.40
2011,04,14,03,03,2.40
2011,04,14,03,04,2.50
2011,04,14,03,05,2.50
2011,04,14,03,06,2.50
2011,04,14,03,07,2.50
2011,04,14,03,08,2.50
2011,04,14,03,09,2.50
2011,04,14,03,10,2.50
2011,04,14,03,11,2.50
2011,04,14,03,12,2.50
2011,04,14,03,13,2.50
2011,04,14,03,14,2.50
2011,04,14,03,15,2.50
2011,04,14,03,16,2.50
2011,04,14,03,17,2.50
2011,04,14,03,18,2.50
2011,04,14,03,19,2.50
2011,04,14,03,20,2.40
2011,04,14,03,21,2.40
2011,04,14,03,22,2.40
2011,04,14,03,23,2.40
2011,04,14,03,24,2.40
2011,04,14,03,25,2.40
2011,04,14,03,26,2.40
2011,04,14,03,27,2.40
2011,04,14,03,28,2.40
2011,04,14,03,29,2.40
2011,04,14,03,30,2.40
2011,04,14,03,31,2.40
2011,04,14,03,32,2.40
2011,04,14,03,33,2.40
2011,04,14,03,34,2.40
2011,04,14,03,35,2.40
2011,04,14,03,36,2.40
2011,04,14,03,37,2.40
2011,04,14,03,38,2.40
2011,04,14,03,39,2.40
2011,04,14,03,40,2.40
2011,04,14,03,41,2.40
2011,04,14,03,42,2.40
2011,04,14,03,43,2.40
2011,04,14,03,44,2.40
2011,04,14,03,45,2.40
2011,04,14,03,46,2.40
2011,04,14,03,47,2.40
2011,04,14,03,48,2.40
2011,04,14,03,49,2.40
2011,04,14,03,50,2.40
2011,04,14,03,51,2.40
2011,04,14,03,52,2.40
2011,04,14,03,53,2.40
2011,04,14,03,54,2.50
2011,04,14,03,55,2.50
2011,04,14,03,56,2.50
2011,04,14,03,57,2.50
2011,04,14,03,58,2.60
2011,04,14,03,59,2.60
2011,04,14,04,00,2.60
2011,04,14,04,01,2.60
2011,04,14,04,02,2.70
2011,04,14,04,03,2.70
2011,04,14,04,04,2.70
2011,04,14,04,05,2.70
2011,04,14,04,06,2.70
2011,04,14,04,07,2.70
2011,04,14,04,08,2.70
2011,04,14,04,09,2.70
2011,04,14,04,10,2.70
2011,04,14,04,11,2.70
2011,04,14,04,12,2.70
2011,04,14,04,13,2.70
2011,04,14,04,14,2.70
2011,04,14,04,15,2.70
2011,04,14,04,16,2.70
2011,04,14,04,17,2.70
2011,04,14,04,18,2.70
2011,04,14,04,19,2.70
2011,04,14,04,20,2.70
2011,04,14,04,21,2.70
2011,04,14,04,22,2.70
2011,04,14,04,23,2.70
2011,04,14,04,24,2.70
2011,04,14,04,25,2.70
2011,04,14,04,26,2.70
2011,04,14,04,27,2.70
2011,04,14,04,28,2.70
2011,04,14,04,29,2.70
2011,04,14,04,30,2.70
2011,04,14,04,31,2.70
2011,04,14,04,32,2.70
2011,04,14,04,33,2.70
2011,04,14,04,34,2.70
2011,04,14,04,35,2.70
2011,04,14,04,36,2.70
2011,04,14,04,37,2.70
2011,04,14,04,38,2.70
2011,04,14,04,39,2.80
2011,04,14,04,40,2.80
2011,04,14,04,41,2.80
2011,04,14,04,42,2.80
2011,04,14,04,43,2.80
2011,04,14,04,44,2.80
2011,04,14,04,45,2.80
2011,04,14,04,46,2.80
2011,04,14,04,47,2.80
2011,04,14,04,48,2.80
2011,04,14,04,49,2.80
2011,04,14,04,50,2.80
2011,04,14,04,51,2.80
2011,04,14,04,52,2.90
2011,04,14,04,53,2.80
2011,04,14,04,54,2.90
2011,04,14,04,55,2.90
2011,04,14,04,56,2.90
2011,04,14,04,57,2.90
2011,04,14,04,58,2.90
2011,04,14,04,59,2.90
2011,04,14,05,00,2.90
2011,04,14,05,01,2.90
2011,04,14,05,02,2.90
2011,04,14,05,03,2.90
2011,04,14,05,04,2.90
2011,04,14,05,05,2.90
2011,04,14,05,06,2.90
2011,04,14,05,07,2.90
2011,04,14,05,08,2.90
2011,04,14,05,09,2.90
2011,04,14,05,10,2.90
2011,04,14,05,11,2.90
2011,04,14,05,12,2.90
2011,04,14,05,13,2.80
2011,04,14,05,14,2.80
2011,04,14,05,15,2.80
2011,04,14,05,16,2.80
2011,04,14,05,17,2.80
2011,04,14,05,18,2.80
2011,04,14,05,19,2.80
2011,04,14,05,20,2.80
2011,04,14,05,21,2.80
2011,04,14,05,22,2.80
2011,04,14,05,23,2.80
2011,04,14,05,24,2.70
2011,04,14,05,25,2.70
2011,04,14,05,26,2.70
2011,04,14,05,27,2.70
2011,04,14,05,28,2.70
2011,04,14,05,29,2.70
2011,04,14,05,30,2.70
2011,04,14,05,31,2.60
2011,04,14,05,32,2.60
2011,04,14,05,33,2.60
2011,04,14,05,34,2.60
2011,04,14,05,35,2.60
2011,04,14,05,36,2.60
2011,04,14,05,37,2.60
2011,04,14,05,38,2.60
2011,04,14,05,39,2.60
2011,04,14,05,40,2.60
2011,04,14,05,41,2.50
2011,04,14,05,42,2.50
2011,04,14,05,43,2.50
2011,04,14,05,44,2.50
2011,04,14,05,45,2.40
2011,04,14,05,46,2.40
2011,04,14,05,47,2.40
2011,04,14,05,48,2.40
2011,04,14,05,49,2.40
2011,04,14,05,50,2.40
2011,04,14,05,51,2.40
2011,04,14,05,52,2.40
2011,04,14,05,53,2.30
2011,04,14,05,54,2.30
2011,04,14,05,55,2.30
2011,04,14,05,56,2.30
2011,04,14,05,57,2.30
2011,04,14,05,58,2.30
2011,04,14,05,59,2.30
2011,04,14,06,00,2.20
2011,04,14,06,01,2.20
2011,04,14,06,02,2.20
2011,04,14,06,03,2.20
2011,04,14,06,04,2.20
2011,04,14,06,05,2.20
2011,04,14,06,06,2.20
2011,04,14,06,07,2.20
2011,04,14,06,08,2.20
2011,04,14,06,09,2.20
2011,04,14,06,10,2.20
2011,04,14,06,11,2.20
2011,04,14,06,12,2.20
2011,04,14,06,13,2.20
2011,04,14,06,14,2.20
2011,04,14,06,15,2.20
2011,04,14,06,16,2.20
2011,04,14,06,17,2.20
2011,04,14,06,18,2.20
2011,04,14,06,19,2.20
2011,04,14,08,01,3.20
2011,04,14,08,02,3.30
2011,04,14,08,03,3.30
2011,04,14,08,04,3.40
2011,04,14,08,05,3.50
2011,04,14,08,06,3.60
2011,04,14,08,07,3.60
2011,04,14,08,08,3.60
2011,04,14,08,09,3.60
2011,04,14,08,10,3.60
2011,04,14,08,11,3.60
2011,04,14,08,12,3.60
2011,04,14,08,13,3.60
2011,04,14,08,14,3.60
2011,04,14,08,15,3.60
2011,04,14,08,16,3.60
2011,04,14,08,17,3.70
2011,04,14,08,18,3.80
2011,04,14,08,19,3.80
2011,04,14,08,20,3.80
2011,04,14,08,21,3.90
2011,04,14,08,22,3.90
2011,04,14,08,23,4.00
2011,04,14,08,24,4.10
2011,04,14,08,25,4.10
2011,04,14,08,26,4.10
2011,04,14,08,27,4.10
2011,04,14,08,28,4.20
2011,04,14,08,29,4.30
2011,04,14,08,30,4.30
2011,04,14,08,31,4.40
2011,04,14,08,32,4.50
2011,04,14,08,33,4.50
2011,04,14,08,34,4.60
2011,04,14,08,35,4.70
2011,04,14,08,36,4.70
2011,04,14,08,37,4.80
2011,04,14,08,38,4.80
2011,04,14,08,39,4.80
2011,04,14,08,40,4.80
2011,04,14,08,41,4.80
2011,04,14,08,42,4.90
2011,04,14,08,43,4.90
2011,04,14,08,44,5.00
2011,04,14,08,45,5.00
2011,04,14,08,46,5.00
2011,04,14,08,47,5.00
2011,04,14,08,48,5.00
2011,04,14,08,49,5.10
2011,04,14,08,50,5.10
2011,04,14,08,51,5.10
2011,04,14,08,52,5.10
2011,04,14,08,53,5.10
2011,04,14,08,54,5.10
2011,04,14,08,55,5.00
2011,04,14,08,56,4.90
2011,04,14,08,57,4.90
2011,04,14,08,58,4.80
2011,04,14,08,59,4.90
2011,04,14,09,00,4.90
2011,04,14,09,01,4.90
2011,04,14,09,02,4.90
2011,04,14,09,03,4.90
2011,04,14,09,04,4.90
2011,04,14,09,05,4.90
2011,04,14,09,06,4.90
2011,04,14,09,07,4.90
2011,04,14,09,08,4.90
2011,04,14,09,09,5.00
2011,04,14,09,10,5.00
2011,04,14,09,11,5.00
2011,04,14,09,12,5.00
2011,04,14,09,13,5.00
2011,04,14,09,14,4.90
2011,04,14,09,15,4.90
2011,04,14,09,16,4.90
2011,04,14,09,17,4.90
2011,04,14,09,18,5.00
2011,04,14,09,19,5.00
2011,04,14,09,20,5.00
2011,04,14,09,21,5.00
2011,04,14,09,22,5.10
2011,04,14,09,23,5.10
2011,04,14,09,24,5.10
2011,04,14,09,25,5.10
2011,04,14,09,26,5.20
2011,04,14,09,27,5.20
2011,04,14,09,28,5.10
2011,04,14,09,29,5.10
2011,04,14,09,30,5.10
2011,04,14,09,31,5.10
2011,04,14,09,32,5.10
2011,04,14,09,33,5.10
2011,04,14,09,34,5.10
2011,04,14,09,35,5.10
2011,04,14,09,36,5.10
2011,04,14,09,37,5.10
2011,04,14,09,38,5.10
2011,04,14,09,39,5.10
2011,04,14,09,40,5.10
2011,04,14,09,41,5.10
2011,04,14,09,42,5.10
2011,04,14,09,43,5.10
2011,04,14,09,44,5.10
2011,04,14,09,45,5.10
2011,04,14,09,46,5.10
2011,04,14,09,47,5.10
2011,04,14,09,48,5.10
2011,04,14,09,49,5.10
2011,04,14,09,50,5.10
2011,04,14,09,51,5.10
2011,04,14,09,52,5.10
2011,04,14,09,53,5.00
2011,04,14,09,54,5.00
2011,04,14,09,55,5.00
2011,04,14,09,56,4.90
2011,04,14,09,57,4.90
2011,04,14,09,58,4.90
2011,04,14,09,59,4.90
2011,04,14,10,00,4.90
2011,04,14,10,01,4.90
2011,04,14,10,02,4.90
2011,04,14,10,03,4.90
2011,04,14,10,04,4.90
2011,04,14,10,05,4.90
2011,04,14,10,06,4.90
2011,04,14,10,07,4.90
2011,04,14,10,08,4.90
2011,04,14,10,09,4.90
2011,04,14,10,10,4.90
2011,04,14,10,11,4.90
2011,04,14,10,12,4.90
2011,04,14,10,13,4.90
2011,04,14,10,14,4.90
2011,04,14,10,15,4.90
2011,04,14,10,16,4.90
2011,04,14,10,17,4.90
2011,04,14,10,18,4.90
2011,04,14,10,19,5.00
2011,04,14,10,20,5.00
2011,04,14,10,21,5.10
2011,04,14,10,22,5.10
2011,04,14,10,23,5.10
2011,04,14,10,24,5.10
2011,04,14,10,25,5.20
2011,04,14,10,26,5.10
2011,04,14,10,27,5.10
2011,04,14,10,28,5.20
2011,04,14,10,29,5.10
2011,04,14,10,30,5.10
2011,04,14,10,31,5.10
2011,04,14,10,32,5.10
2011,04,14,10,33,5.10
2011,04,14,10,34,5.10
2011,04,14,10,35,5.10
2011,04,14,10,36,5.10
2011,04,14,10,37,5.10
2011,04,14,10,38,5.10
2011,04,14,10,39,5.10
2011,04,14,10,40,5.20
2011,04,14,10,41,5.20
2011,04,14,10,42,5.20
2011,04,14,10,43,5.20
2011,04,14,10,44,5.20
2011,04,14,10,45,5.20
2011,04,14,10,46,5.20
2011,04,14,10,47,5.20
2011,04,14,10,48,5.20
2011,04,14,10,49,5.20
2011,04,14,10,50,5.20
2011,04,14,10,51,5.20
2011,04,14,10,52,5.20
2011,04,14,10,53,5.30
2011,04,14,10,54,5.30
2011,04,14,10,55,5.30
2011,04,14,10,56,5.30
2011,04,14,10,57,5.30
2011,04,14,10,58,5.40
2011,04,14,10,59,5.40
2011,04,14,11,00,5.40
2011,04,14,11,01,5.50
2011,04,14,11,02,5.50
2011,04,14,11,03,5.60
2011,04,14,11,04,5.60
2011,04,14,11,05,5.60
2011,04,14,11,06,5.60
2011,04,14,11,07,5.60
2011,04,14,11,08,5.60
2011,04,14,11,09,5.60
2011,04,14,11,10,5.60
2011,04,14,11,11,5.60
2011,04,14,11,12,5.60
2011,04,14,11,13,5.60
2011,04,14,11,14,5.60
2011,04,14,11,15,5.60
2011,04,14,11,16,5.60
2011,04,14,11,17,5.60
2011,04,14,11,18,5.70
2011,04,14,11,19,5.70
2011,04,14,11,20,5.70
2011,04,14,11,21,5.60
2011,04,14,11,22,5.60
2011,04,14,11,23,5.60
2011,04,14,11,24,5.60
2011,04,14,11,25,5.50
2011,04,14,11,26,5.50
2011,04,14,11,27,5.50
2011,04,14,11,28,5.50
2011,04,14,11,29,5.50
2011,04,14,11,30,5.50
2011,04,14,11,31,5.50
2011,04,14,11,32,5.60
2011,04,14,11,33,5.60
2011,04,14,11,34,5.60
2011,04,14,11,35,5.60
2011,04,14,11,36,5.60
2011,04,14,11,37,5.60
2011,04,14,11,38,5.60
2011,04,14,11,39,5.70
2011,04,14,11,40,5.60
2011,04,14,11,41,5.60
2011,04,14,11,42,5.60
2011,04,14,11,43,5.60
2011,04,14,11,44,5.60
2011,04,14,11,45,5.60
2011,04,14,11,46,5.50
2011,04,14,11,47,5.50
2011,04,14,11,48,5.40
2011,04,14,11,49,5.40
2011,04,14,11,50,5.40
2011,04,14,11,51,5.40
2011,04,14,11,52,5.40
2011,04,14,11,53,5.40
2011,04,14,11,54,5.40
2011,04,14,11,55,5.40
2011,04,14,11,56,5.40
2011,04,14,11,57,5.40
2011,04,14,11,58,5.40
2011,04,14,11,59,5.40
2011,04,14,12,00,5.40
2011,04,14,12,01,5.50
2011,04,14,12,02,5.50
2011,04,14,12,03,5.50
2011,04,14,12,04,5.60
2011,04,14,12,05,5.60
2011,04,14,12,06,5.60
2011,04,14,12,07,5.60
2011,04,14,12,08,5.60
2011,04,14,12,09,5.60
2011,04,14,12,10,5.50
2011,04,14,12,11,5.50
2011,04,14,12,12,5.50
2011,04,14,12,13,5.50
2011,04,14,12,14,5.40
2011,04,14,12,15,5.40
2011,04,14,12,16,5.40
2011,04,14,12,17,5.40
2011,04,14,12,18,5.40
2011,04,14,12,19,5.40
2011,04,14,12,20,5.40
2011,04,14,12,21,5.40
2011,04,14,12,22,5.40
2011,04,14,12,23,5.30
2011,04,14,12,24,5.30
2011,04,14,12,25,5.30
2011,04,14,12,26,5.30
2011,04,14,12,27,5.30
2011,04,14,12,28,5.30
2011,04,14,12,29,5.30
2011,04,14,12,30,5.30
2011,04,14,12,31,5.30
2011,04,14,12,32,5.30
2011,04,14,12,33,5.30
2011,04,14,12,34,5.40
2011,04,14,12,35,5.40
2011,04,14,12,36,5.40
2011,04,14,12,37,5.40
2011,04,14,12,38,5.40
2011,04,14,12,39,5.40
2011,04,14,12,40,5.40
2011,04,14,12,41,5.40
2011,04,14,12,42,5.40
2011,04,14,12,43,5.40
2011,04,14,12,44,5.40
2011,04,14,12,45,5.40
2011,04,14,12,46,5.50
2011,04,14,12,47,5.50
2011,04,14,12,48,5.50
2011,04,14,12,49,5.50
2011,04,14,12,50,5.50
2011,04,14,12,51,5.60
2011,04,14,12,52,5.60
2011,04,14,12,53,5.60
2011,04,14,12,54,5.60
2011,04,14,12,55,5.70
2011,04,14,12,56,5.70
2011,04,14,12,57,5.70
2011,04,14,12,58,5.70
2011,04,14,12,59,5.70
2011,04,14,13,00,5.70
2011,04,14,13,01,5.70
2011,04,14,13,02,5.70
2011,04,14,13,03,5.70
2011,04,14,13,04,5.70
2011,04,14,13,05,5.70
2011,04,14,13,06,5.70
2011,04,14,13,07,5.70
2011,04,14,13,08,5.80
2011,04,14,13,09,5.80
2011,04,14,13,10,5.80
2011,04,14,13,11,5.80
2011,04,14,13,12,5.80
2011,04,14,13,13,5.80
2011,04,14,13,14,5.80
2011,04,14,13,15,5.80
2011,04,14,13,16,5.90
2011,04,14,13,17,5.90
2011,04,14,13,18,5.90
2011,04,14,13,19,5.90
2011,04,14,13,20,5.90
2011,04,14,13,21,5.90
2011,04,14,13,22,5.90
2011,04,14,13,23,5.90
2011,04,14,13,24,5.90
2011,04,14,13,25,5.90
2011,04,14,13,26,5.90
2011,04,14,13,27,5.90
2011,04,14,13,28,6.00
2011,04,14,13,29,5.90
2011,04,14,13,30,6.00
2011,04,14,13,31,6.00
2011,04,14,13,32,6.00
2011,04,14,13,33,6.00
2011,04,14,13,34,6.00
2011,04,14,13,35,6.00
2011,04,14,13,36,6.00
2011,04,14,13,37,5.90
2011,04,14,13,38,5.90
2011,04,14,13,39,5.90
2011,04,14,13,40,5.90
2011,04,14,13,41,5.90
2011,04,14,13,42,6.00
2011,04,14,13,43,6.00
2011,04,14,13,44,5.90
2011,04,14,13,45,5.90
2011,04,14,13,46,6.00
2011,04,14,13,47,6.00
2011,04,14,13,48,6.00
2011,04,14,13,49,6.00
2011,04,14,13,50,6.00
2011,04,14,13,51,6.10
2011,04,14,13,52,6.10
2011,04,14,13,53,6.10
2011,04,14,13,54,6.10
2011,04,14,13,55,6.10
2011,04,14,13,56,6.10
2011,04,14,13,57,6.10
2011,04,14,13,58,6.10
2011,04,14,13,59,6.10
2011,04,14,14,00,6.00
2011,04,14,14,01,6.00
2011,04,14,14,02,6.00
2011,04,14,14,03,6.00
2011,04,14,14,04,6.00
2011,04,14,14,05,6.00
2011,04,14,14,06,6.00
2011,04,14,14,07,6.00
2011,04,14,14,08,5.90
2011,04,14,14,09,5.90
2011,04,14,14,10,5.80
2011,04,14,14,11,5.70
2011,04,14,14,12,5.60
2011,04,14,14,13,5.50
2011,04,14,14,14,5.50
2011,04,14,14,15,5.30
2011,04,14,14,16,5.20
2011,04,14,14,17,5.00
2011,04,14,14,18,4.90
2011,04,14,14,19,4.90
2011,04,14,14,20,4.80
2011,04,14,14,21,4.80
2011,04,14,14,22,4.70
2011,04,14,14,23,4.70
2011,04,14,14,24,4.70
2011,04,14,14,25,4.60
2011,04,14,14,26,4.60
2011,04,14,14,27,4.60
2011,04,14,14,28,4.60
2011,04,14,14,29,4.60
2011,04,14,14,30,4.70
2011,04,14,14,31,4.70
2011,04,14,14,32,4.70
2011,04,14,14,33,4.70
2011,04,14,14,34,4.80
2011,04,14,14,35,4.90
2011,04,14,14,36,5.00
2011,04,14,14,37,5.10
2011,04,14,14,38,5.20
2011,04,14,14,39,5.30
2011,04,14,14,40,5.30
2011,04,14,14,41,5.30
2011,04,14,14,42,5.40
2011,04,14,14,43,5.40
2011,04,14,14,44,5.40
2011,04,14,14,45,5.40
2011,04,14,14,46,5.40
2011,04,14,14,47,5.50
2011,04,14,14,48,5.50
2011,04,14,14,49,5.50
2011,04,14,14,50,5.50
2011,04,14,14,51,5.50
2011,04,14,14,52,5.50
2011,04,14,14,53,5.50
2011,04,14,14,54,5.50
2011,04,14,14,55,5.50
2011,04,14,14,56,5.50
2011,04,14,14,57,5.60
2011,04,14,14,58,5.60
2011,04,14,14,59,5.50
2011,04,14,15,00,5.50
2011,04,14,15,01,5.50
2011,04,14,15,02,5.50
2011,04,14,15,03,5.50
2011,04,14,15,04,5.50
2011,04,14,15,05,5.50
2011,04,14,15,06,5.50
2011,04,14,15,07,5.50
2011,04,14,15,08,5.50
2011,04,14,15,09,5.50
2011,04,14,15,10,5.40
2011,04,14,15,11,5.40
2011,04,14,15,12,5.50
2011,04,14,15,13,5.50
2011,04,14,15,14,5.50
2011,04,14,15,15,5.40
2011,04,14,15,16,5.40
2011,04,14,15,17,5.50
2011,04,14,15,18,5.50
2011,04,14,15,19,5.50
2011,04,14,15,20,5.50
2011,04,14,15,21,5.50
2011,04,14,15,22,5.50
2011,04,14,15,23,5.50
2011,04,14,15,24,5.50
2011,04,14,15,25,5.50
2011,04,14,15,26,5.50
2011,04,14,15,27,5.50
2011,04,14,15,28,5.60
2011,04,14,15,29,5.60
2011,04,14,15,30,5.60
2011,04,14,15,31,5.60
2011,04,14,15,32,5.60
2011,04,14,15,33,5.60
2011,04,14,15,34,5.60
2011,04,14,15,35,5.70
2011,04,14,15,36,5.60
2011,04,14,15,37,5.70
2011,04,14,15,38,5.70
2011,04,14,15,39,5.70
2011,04,14,15,40,5.60
2011,04,14,15,41,5.60
2011,04,14,15,42,5.60
2011,04,14,15,43,5.50
2011,04,14,15,44,5.50
2011,04,14,15,45,5.50
2011,04,14,15,46,5.40
2011,04,14,15,47,5.40
2011,04,14,15,48,5.50
2011,04,14,15,49,5.50
2011,04,14,15,50,5.50
2011,04,14,15,51,5.50
2011,04,14,15,52,5.50
2011,04,14,15,53,5.60
2011,04,14,15,54,5.60
2011,04,14,15,55,5.60
2011,04,14,15,56,5.60
2011,04,14,15,57,5.60
2011,04,14,15,58,5.70
2011,04,14,15,59,5.70
2011,04,14,16,00,5.70
2011,04,14,16,01,5.70
2011,04,14,16,02,5.70
2011,04,14,16,03,5.70
2011,04,14,16,04,5.70
2011,04,14,16,05,5.60
2011,04,14,16,06,5.60
2011,04,14,16,07,5.70
2011,04,14,16,08,5.70
2011,04,14,16,09,5.70
2011,04,14,16,10,5.80
2011,04,14,16,11,5.80
2011,04,14,16,12,5.90
2011,04,14,16,13,5.90
2011,04,14,16,14,5.90
2011,04,14,16,15,5.90
2011,04,14,16,16,5.90
2011,04,14,16,17,5.90
2011,04,14,16,18,5.90
2011,04,14,16,19,5.80
2011,04,14,16,20,5.80
2011,04,14,16,21,5.80
2011,04,14,16,22,5.80
2011,04,14,16,23,5.70
2011,04,14,16,24,5.70
2011,04,14,16,25,5.70
2011,04,14,16,26,5.70
2011,04,14,16,27,5.70
2011,04,14,16,28,5.70
2011,04,14,16,29,5.70
2011,04,14,16,30,5.70
2011,04,14,16,31,5.80
2011,04,14,16,32,5.80
2011,04,14,16,33,5.80
2011,04,14,16,34,5.80
2011,04,14,16,35,5.80
2011,04,14,16,36,5.90
2011,04,14,16,37,5.90
2011,04,14,16,38,6.00
2011,04,14,16,39,6.10
2011,04,14,16,40,6.10
2011,04,14,16,41,6.10
2011,04,14,16,42,6.10
2011,04,14,16,43,6.10
2011,04,14,16,44,6.20
2011,04,14,16,45,6.20
2011,04,14,16,46,6.30
2011,04,14,16,47,6.30
2011,04,14,16,48,6.40
2011,04,14,16,49,6.40
2011,04,14,16,50,6.50
2011,04,14,16,51,6.50
2011,04,14,16,52,6.40
2011,04,14,16,53,6.50
2011,04,14,16,54,6.60
2011,04,14,16,55,6.70
2011,04,14,16,56,6.80
2011,04,14,16,57,6.80
2011,04,14,16,58,6.90
2011,04,14,16,59,7.00
2011,04,14,17,00,7.00
2011,04,14,17,01,7.10
2011,04,14,17,02,7.10
2011,04,14,17,03,7.10
2011,04,14,17,04,7.20
2011,04,14,17,05,7.20
2011,04,14,17,06,7.30
2011,04,14,17,07,7.30
2011,04,14,17,08,7.30
2011,04,14,17,09,7.30
2011,04,14,17,10,7.30
2011,04,14,17,11,7.30
2011,04,14,17,12,7.30
2011,04,14,17,13,7.30
2011,04,14,17,14,7.30
2011,04,14,17,15,7.30
2011,04,14,17,16,7.40
2011,04,14,17,17,7.40
2011,04,14,17,18,7.50
2011,04,14,17,19,7.50
2011,04,14,17,20,7.60
2011,04,14,17,21,7.60
2011,04,14,17,22,7.60
2011,04,14,17,23,7.60
2011,04,14,17,24,7.60
2011,04,14,17,25,7.50
2011,04,14,17,26,7.50
2011,04,14,17,27,7.50
2011,04,14,17,28,7.50
2011,04,14,17,29,7.50
2011,04,14,17,30,7.40
2011,04,14,17,31,7.40
2011,04,14,17,32,7.40
2011,04,14,17,33,7.40
2011,04,14,17,34,7.30
2011,04,14,17,35,7.30
2011,04,14,17,36,7.30
2011,04,14,17,37,7.30
2011,04,14,17,38,7.30
2011,04,14,17,39,7.30
2011,04,14,17,40,7.30
2011,04,14,17,41,7.30
2011,04,14,17,42,7.30
2011,04,14,17,43,7.30
2011,04,14,17,44,7.30
2011,04,14,17,45,7.30
2011,04,14,17,46,7.30
2011,04,14,17,47,7.30
2011,04,14,17,48,7.30
2011,04,14,17,49,7.30
2011,04,14,17,50,7.30
2011,04,14,17,51,7.30
2011,04,14,17,52,7.30
2011,04,14,17,53,7.20
2011,04,14,17,54,7.20
2011,04,14,17,55,7.20
2011,04,14,17,56,7.20
2011,04,14,17,57,7.20
2011,04,14,17,58,7.20
2011,04,14,17,59,7.20
2011,04,14,18,00,7.10
2011,04,14,18,01,7.10
2011,04,14,18,02,7.10
2011,04,14,18,03,7.10
2011,04,14,18,04,7.10
2011,04,14,18,05,7.10
2011,04,14,18,06,7.10
2011,04,14,18,07,7.10
2011,04,14,18,08,7.10
2011,04,14,18,09,7.00
2011,04,14,18,10,7.00
2011,04,14,18,11,7.00
2011,04,14,18,12,7.00
2011,04,14,18,13,6.90
2011,04,14,18,14,6.90
2011,04,14,18,15,6.90
2011,04,14,18,16,6.80
2011,04,14,18,17,6.80
2011,04,14,18,18,6.80
2011,04,14,18,19,6.80
2011,04,14,18,20,6.80
2011,04,14,18,21,6.70
2011,04,14,18,22,6.70
2011,04,14,18,23,6.70
2011,04,14,18,24,6.70
2011,04,14,18,25,6.60
2011,04,14,18,26,6.70
2011,04,14,18,27,6.70
2011,04,14,18,28,6.60
2011,04,14,18,29,6.60
2011,04,14,18,30,6.60
2011,04,14,18,31,6.60
2011,04,14,18,32,6.60
2011,04,14,18,33,6.60
2011,04,14,18,34,6.70
2011,04,14,18,35,6.60
2011,04,14,18,36,6.60
2011,04,14,18,37,6.70
2011,04,14,18,38,6.70
2011,04,14,18,39,6.70
2011,04,14,18,40,6.70
2011,04,14,18,41,6.70
2011,04,14,18,42,6.60
2011,04,14,18,43,6.60
2011,04,14,18,44,6.60
2011,04,14,18,45,6.60
2011,04,14,18,46,6.60
2011,04,14,18,47,6.50
2011,04,14,18,48,6.50
2011,04,14,18,49,6.50
2011,04,14,18,50,6.50
2011,04,14,18,51,6.40
2011,04,14,18,52,6.40
2011,04,14,18,53,6.40
2011,04,14,18,54,6.40
2011,04,14,18,55,6.30
2011,04,14,18,56,6.30
2011,04,14,18,57,6.30
2011,04,14,18,58,6.30
2011,04,14,18,59,6.30
2011,04,14,19,00,6.20
2011,04,14,19,01,6.20
2011,04,14,19,02,6.20
2011,04,14,19,03,6.20
2011,04,14,19,04,6.20
2011,04,14,19,05,6.10
2011,04,14,19,06,6.10
2011,04,14,19,07,6.10
2011,04,14,19,08,6.00
2011,04,14,19,09,6.00
2011,04,14,19,10,5.90
2011,04,14,19,11,5.90
2011,04,14,19,12,5.90
2011,04,14,19,13,5.90
2011,04,14,19,14,5.80
2011,04,14,19,15,5.80
2011,04,14,19,16,5.70
2011,04,14,19,17,5.70
2011,04,14,19,18,5.70
2011,04,14,19,19,5.70
2011,04,14,19,20,5.70
2011,04,14,19,21,5.60
2011,04,14,19,22,5.60
2011,04,14,19,23,5.60
2011,04,14,19,24,5.60
2011,04,14,19,25,5.60
2011,04,14,19,26,5.60
2011,04,14,19,27,5.60
2011,04,14,19,28,5.60
2011,04,14,19,29,5.60
2011,04,14,19,30,5.60
2011,04,14,19,31,5.60
2011,04,14,19,32,5.60
2011,04,14,19,33,5.60
2011,04,14,19,34,5.50
2011,04,14,19,35,5.50
2011,04,14,19,36,5.50
2011,04,14,19,37,5.50
2011,04,14,19,38,5.40
2011,04,14,19,39,5.40
2011,04,14,19,40,5.40
2011,04,14,19,41,5.40
2011,04,14,19,42,5.40
2011,04,14,19,43,5.40
2011,04,14,19,44,5.40
2011,04,14,19,45,5.30
2011,04,14,19,46,5.30
2011,04,14,19,47,5.30